Wind_Speed
25 23 20 19 18 17 15 14 12 13 13 13 13 13 13 12 11 10 9 8 7 7 6 5 4 3 2 3 4 7 9 11 13 14 15 16 17 18 18 18 17 16 15 14
23 21 20 20 18 16 14 12 13 13 12 12 12 12 13 12 11 11 10 9 8 7 7 6 5 3 2 3 4 6 9 11 13 14 15 16 17 18 18 18 18 17 16 14
20 20 19 17 16 15 13 13 13 12 12 11 11 11 13 12 11 10 9 9 9 8 7 7 6 4 3 3 4 6 8 10 12 14 15 16 17 18 18 18 18 17 16 15
20 20 18 16 15 15 13 13 12 12 11 11 11 11 12 13 12 11 10 10 9 9 8 8 7 5 4 3 4 6 8 10 12 14 15 16 17 17 17 18 18 18 17 15
19 18 17 16 15 15 13 12 12 12 12 11 12 12 11 12 12 11 11 10 10 10 9 9 7 5 4 4 5 6 8 10 12 13 15 16 16 17 17 17 18 18 17 16
17 17 16 16 15 14 13 12 12 12 13 12 13 13 11 11 11 11 11 11 11 11 10 9 8 6 5 5 5 6 8 10 11 13 15 16 16 16 17 17 17 18 17 16
15 15 15 14 14 13 12 12 12 13 13 13 13 12 11 12 11 11 11 11 12 11 11 10 8 7 7 6 6 7 8 9 11 13 14 15 16 16 16 16 17 17 17 16
14 14 14 13 13 12 12 12 13 14 14 14 13 12 12 13 12 12 11 12 12 12 11 10 9 8 7 7 7 7 8 9 11 12 14 15 15 16 16 16 16 16 16 16
12 13 13 12 12 11 12 13 13 14 14 14 13 12 13 14 13 13 12 12 13 13 12 11 10 9 8 7 7 8 9 10 11 12 13 14 15 15 15 15 15 16 16 16
11 11 12 12 12 12 12 13 13 14 15 14 13 13 14 15 14 13 13 13 13 14 13 12 11 10 9 8 8 8 9 10 11 12 13 13 14 15 15 15 15 15 15 15
8 9 11 12 12 13 13 14 14 15 16 16 15 13 15 15 15 15 15 15 15 15 14 13 12 11 10 9 8 9 9 10 10 11 12 13 13 14 14 15 15 15 15 15
7 9 11 12 13 14 15 15 16 17 18 17 17 13 15 16 16 16 16 16 16 16 16 15 14 12 11 10 9 9 9 10 10 11 11 12 13 13 14 14 15 15 15 15
8 9 11 13 14 15 17 17 18 19 20 19 18 15 16 17 18 18 18 18 18 18 17 16 15 14 12 11 10 10 10 10 10 10 11 11 12 13 14 14 15 15 15 15
11 12 13 15 17 18 18 19 20 21 21 20 18 17 17 19 19 19 19 19 19 19 18 17 16 15 14 12 11 11 10 10 10 10 10 11 12 12 13 14 15 15 15 15
13 14 15 16 18 18 19 19 20 21 21 21 19 18 17 20 21 20 20 20 19 20 19 18 17 16 15 14 13 12 11 11 10 10 10 11 11 12 13 14 15 15 15 15
14 15 16 16 18 18 18 18 20 20 20 20 20 17 18 20 21 20 20 20 20 20 21 20 19 18 17 15 14 13 12 12 11 11 11 11 11 12 13 14 15 15 15 15
16 17 17 17 19 20 18 18 20 20 20 20 19 18 19 20 21 20 20 20 20 21 21 21 20 19 18 17 16 14 13 13 12 12 11 11 12 12 13 14 15 15 15 15
19 19 20 20 20 21 18 19 20 20 20 21 20 19 20 21 21 21 20 20 20 21 22 21 21 20 19 18 17 16 15 14 13 13 12 12 12 12 13 14 15 15 15 15
21 22 23 23 23 22 20 20 21 21 21 21 20 20 21 21 21 21 21 21 21 22 22 22 21 21 20 19 18 17 16 16 15 14 14 13 13 13 13 14 15 15 16 16
24 25 26 27 27 26 22 23 23 23 23 22 22 21 21 21 21 21 22 22 22 22 23 23 22 22 21 21 20 19 18 17 17 16 15 15 14 14 14 15 15 16 16 16
27 28 29 29 30 29 26 26 26 26 25 24 24 23 23 22 22 22 23 23 23 23 24 24 24 23 23 22 21 20 20 19 18 18 17 16 16 15 16 16 16 16 17 17
31 32 32 32 34 33 30 29 29 29 28 27 27 26 25 25 24 24 24 25 25 25 25 25 25 25 25 24 23 22 22 21 20 19 19 18 17 17 17 17 17 17 18 18
35 36 36 36 36 36 35 34 34 33 32 31 31 30 29 28 27 27 26 26 26 27 27 27 27 27 26 25 25 24 23 23 22 21 21 20 19 18 18 18 18 18 19 19
39 39 40 40 39 39 39 39 38 38 36 35 35 34 33 32 31 30 29 29 29 28 28 28 28 28 28 27 27 26 25 25 24 23 23 22 21 20 20 20 20 20 20 21
42 43 43 44 42 43 43 43 43 42 41 39 38 37 37 36 35 34 32 31 31 31 30 30 30 30 30 29 29 28 27 27 26 26 25 24 23 22 22 21 21 21 21 22
44 46 47 47 46 47 46 46 46 46 45 44 42 41 40 40 39 37 36 34 34 33 33 32 32 32 32 31 31 30 30 29 29 28 27 26 25 24 24 23 23 23 23 23
Wind_Direction
197 198 199 202 206 211 217 225 236 243 248 252 259 264 269 270 272 275 271 263 254 248 253 252 248 256 295 330 352 1 4 3 3 3 2 3 2 1 1 1 360 358 354 350
190 191 194 199 204 211 215 222 232 240 246 252 257 265 270 273 274 272 267 257 248 245 246 242 237 248 276 314 346 356 0 1 3 3 4 4 4 3 3 4 4 3 2 360
184 188 193 198 204 210 216 223 231 241 249 256 263 269 275 276 275 270 262 254 246 242 239 235 235 245 267 301 337 349 353 357 0 2 3 3 3 3 4 5 6 6 5 4
181 185 190 195 201 208 217 225 233 243 254 265 270 273 276 279 276 270 260 252 244 238 234 231 233 242 263 291 325 340 347 353 357 359 360 1 1 2 4 5 7 8 8 7
179 185 189 194 202 210 219 228 238 250 263 272 274 278 279 277 271 264 257 250 242 236 232 228 231 243 262 284 312 332 342 349 353 356 358 359 360 1 2 5 7 8 9 10
179 186 192 198 207 214 223 234 247 260 271 277 277 279 280 275 267 260 253 246 239 234 230 228 232 245 261 279 303 324 336 344 349 352 355 358 360 1 2 4 6 8 9 11
180 188 196 205 212 219 228 242 259 269 275 279 276 278 279 272 265 257 249 243 236 233 229 228 234 247 260 276 297 316 329 339 345 350 353 356 358 0 2 4 5 8 9 10
183 194 201 210 218 224 234 247 259 269 274 276 277 277 273 268 262 255 249 242 235 231 228 229 234 246 258 274 292 309 323 334 341 346 350 355 358 360 2 3 5 6 8 8
190 202 209 217 223 231 242 254 264 272 274 277 277 274 269 266 261 254 248 241 234 230 228 229 235 245 256 271 288 304 317 328 336 342 347 352 356 358 0 2 3 4 5 6
199 212 222 229 235 241 251 260 267 273 279 280 277 274 267 264 260 253 246 239 234 231 230 231 237 244 254 267 284 300 313 324 332 338 343 349 353 355 358 360 1 1 2 2
208 221 233 240 246 253 257 262 268 272 277 280 277 273 268 263 258 252 246 240 235 232 231 234 238 243 252 263 279 295 308 320 329 336 341 346 350 353 356 357 358 359 359 360
223 232 245 252 255 258 262 266 271 277 279 279 276 271 268 263 257 251 247 242 237 234 233 235 239 243 249 260 274 289 302 314 324 332 339 344 347 350 353 355 356 357 357 357
247 251 258 263 265 265 267 269 273 276 277 278 277 274 268 263 257 251 247 243 238 235 234 236 240 242 247 256 269 283 296 307 317 325 332 339 344 348 351 352 352 353 353 354
262 263 262 263 267 270 269 270 273 275 276 277 276 270 264 262 257 252 248 245 240 236 236 237 240 242 246 254 264 276 288 300 309 318 326 332 338 343 347 349 349 349 350 350
271 270 270 269 271 272 273 274 275 274 275 277 274 268 263 258 256 253 250 247 242 237 236 238 240 243 247 252 260 270 281 292 300 309 318 325 332 337 341 344 346 346 346 346
277 275 274 275 275 275 276 276 277 277 276 275 271 267 262 257 256 255 252 248 243 238 236 239 241 243 247 252 258 265 275 284 292 300 309 317 324 330 335 339 341 342 344 344
281 280 278 276 276 277 278 278 279 279 278 274 270 264 259 257 256 254 251 248 244 241 239 239 241 243 246 251 256 262 270 278 285 291 300 309 316 322 328 332 335 337 339 340
282 280 279 278 276 276 280 277 277 276 274 272 269 265 262 258 255 254 252 249 245 243 241 240 241 244 247 251 255 260 267 273 279 285 292 300 308 315 321 326 329 332 334 336
282 280 279 278 277 277 277 277 276 274 271 270 269 266 264 261 258 254 251 248 245 244 241 240 242 244 247 250 254 259 264 269 274 279 286 293 300 307 314 320 324 327 328 330
280 279 278 278 277 277 277 274 273 272 270 268 267 265 263 261 257 253 251 248 246 244 242 242 243 245 247 249 253 257 261 265 270 274 280 285 292 300 306 312 319 324 325 326
277 275 276 277 277 277 277 274 272 268 267 266 265 264 263 260 257 252 250 249 247 245 244 244 245 246 247 249 252 256 259 262 266 270 274 280 286 293 299 305 312 317 321 322
276 274 273 273 274 275 275 272 270 268 266 263 262 262 261 260 257 254 251 249 247 245 245 245 246 246 246 248 251 254 257 260 264 267 270 275 280 287 293 299 305 311 314 317
275 274 272 271 271 272 271 269 268 267 265 263 261 259 259 258 257 255 253 251 248 246 245 245 245 244 245 247 250 253 256 259 261 264 267 271 276 281 287 293 299 305 309 312
275 273 272 271 270 269 269 267 266 265 263 262 261 259 258 257 256 255 253 252 251 249 247 245 245 245 246 247 249 251 254 257 259 262 264 268 272 277 283 289 294 299 304 308
276 274 273 271 270 267 265 265 264 264 263 262 261 259 258 257 256 255 253 252 251 250 249 247 246 246 247 248 249 251 253 256 258 260 263 266 270 274 279 284 290 295 300 304
277 274 272 271 269 267 264 263 263 262 262 261 260 259 258 256 255 254 253 252 251 250 250 249 248 248 249 249 250 251 253 255 257 259 261 264 267 271 276 281 286 291 296 300
Height
5825 5832 5837 5842 5845 5849 5851 5853 5855 5855 5856 5856 5857 5857 5856 5856 5856 5856 5855 5855 5855 5855 5855 5855 5855 5854 5853 5851 5850 5847 5844 5841 5838 5834 5830 5826 5822 5817 5813 5808 5804 5799 5795 5791
5826 5831 5836 5839 5843 5847 5849 5851 5852 5853 5853 5854 5854 5855 5854 5854 5854 5853 5853 5853 5854 5854 5854 5854 5854 5853 5852 5851 5849 5846 5844 5841 5837 5834 5830 5826 5822 5817 5813 5808 5804 5799 5795 5791
5826 5832 5835 5839 5842 5845 5847 5849 5850 5851 5851 5852 5853 5853 5852 5851 5851 5851 5851 5851 5852 5852 5852 5852 5852 5852 5851 5849 5848 5846 5843 5840 5837 5833 5829 5825 5821 5817 5812 5808 5804 5799 5795 5791
5825 5830 5834 5838 5841 5843 5845 5847 5848 5849 5849 5850 5851 5851 5850 5849 5848 5848 5849 5849 5850 5850 5850 5851 5851 5850 5850 5848 5847 5845 5842 5839 5836 5833 5829 5825 5821 5817 5812 5808 5804 5799 5795 5791
5826 5829 5833 5836 5839 5841 5843 5845 5846 5847 5847 5848 5848 5848 5849 5846 5846 5846 5847 5847 5847 5848 5849 5849 5849 5849 5848 5847 5846 5844 5841 5838 5835 5832 5828 5824 5820 5816 5812 5808 5804 5800 5795 5792
5826 5829 5833 5835 5838 5840 5842 5844 5844 5845 5845 5846 5845 5845 5846 5844 5844 5844 5844 5845 5845 5846 5847 5847 5847 5847 5847 5846 5844 5842 5840 5838 5834 5831 5828 5824 5820 5816 5812 5808 5804 5800 5796 5792
5827 5830 5832 5835 5837 5839 5840 5842 5844 5844 5844 5844 5843 5842 5843 5842 5841 5841 5842 5842 5843 5844 5844 5845 5846 5846 5845 5844 5843 5841 5839 5836 5834 5830 5827 5823 5819 5815 5812 5808 5804 5800 5796 5792
5828 5830 5832 5834 5836 5837 5839 5840 5842 5842 5841 5841 5840 5840 5840 5839 5838 5839 5839 5840 5840 5841 5842 5843 5843 5844 5843 5843 5842 5840 5838 5835 5832 5829 5826 5822 5819 5815 5811 5808 5804 5800 5796 5793
5828 5830 5831 5833 5834 5836 5837 5837 5838 5838 5838 5838 5838 5837 5837 5836 5836 5836 5836 5837 5838 5839 5840 5841 5841 5842 5841 5841 5840 5838 5836 5834 5831 5828 5825 5821 5818 5814 5811 5807 5804 5800 5797 5793
5827 5829 5831 5832 5833 5834 5835 5835 5835 5835 5834 5835 5835 5834 5834 5833 5833 5833 5834 5834 5835 5836 5837 5838 5839 5839 5839 5839 5838 5836 5835 5832 5830 5827 5824 5821 5817 5814 5810 5807 5803 5800 5797 5793
5827 5829 5830 5830 5831 5832 5832 5833 5832 5832 5831 5831 5831 5833 5830 5829 5829 5830 5830 5831 5832 5833 5834 5835 5836 5836 5837 5836 5836 5834 5833 5831 5828 5825 5822 5819 5816 5813 5810 5806 5803 5800 5796 5793
5826 5828 5828 5829 5829 5829 5829 5829 5829 5829 5828 5827 5827 5831 5826 5825 5825 5826 5827 5827 5829 5830 5831 5832 5833 5833 5834 5834 5833 5832 5831 5829 5826 5824 5821 5818 5815 5812 5809 5805 5802 5799 5796 5792
5825 5826 5827 5827 5828 5827 5825 5825 5825 5824 5823 5823 5823 5826 5822 5821 5821 5821 5822 5823 5825 5826 5827 5829 5829 5830 5830 5831 5830 5829 5828 5826 5824 5822 5819 5817 5814 5811 5808 5804 5801 5798 5795 5792
5823 5823 5824 5825 5823 5822 5821 5821 5820 5819 5818 5818 5818 5819 5818 5816 5816 5817 5818 5819 5820 5822 5823 5825 5826 5826 5827 5827 5827 5826 5825 5824 5822 5820 5818 5815 5812 5809 5806 5803 5800 5797 5794 5791
5819 5820 5819 5819 5818 5817 5816 5816 5815 5814 5813 5813 5813 5813 5813 5811 5811 5812 5813 5814 5816 5817 5819 5820 5822 5823 5823 5823 5823 5823 5822 5821 5819 5818 5816 5813 5811 5808 5805 5802 5799 5796 5793 5790
5815 5815 5815 5814 5813 5812 5811 5811 5810 5809 5808 5807 5807 5808 5807 5806 5806 5807 5808 5809 5811 5812 5814 5816 5817 5818 5819 5819 5820 5819 5819 5818 5816 5815 5813 5811 5809 5806 5803 5800 5797 5794 5791 5788
5811 5811 5810 5810 5808 5807 5807 5807 5805 5804 5803 5802 5801 5803 5801 5801 5801 5802 5803 5804 5806 5807 5809 5811 5812 5813 5814 5815 5815 5815 5815 5814 5813 5812 5810 5808 5806 5804 5801 5798 5795 5792 5789 5786
5807 5806 5805 5804 5804 5802 5805 5801 5800 5798 5797 5796 5796 5796 5796 5795 5796 5797 5798 5799 5801 5802 5804 5805 5807 5808 5809 5810 5811 5811 5811 5810 5809 5808 5807 5805 5803 5801 5799 5796 5793 5790 5787 5784
5801 5800 5799 5798 5796 5796 5798 5796 5794 5792 5792 5791 5790 5791 5790 5790 5791 5792 5792 5794 5795 5796 5798 5800 5801 5803 5804 5805 5805 5806 5806 5805 5805 5804 5803 5801 5799 5798 5795 5793 5790 5787 5785 5782
5795 5794 5793 5791 5790 5790 5792 5790 5788 5787 5786 5786 5785 5785 5785 5785 5786 5787 5787 5788 5789 5790 5792 5794 5795 5797 5798 5799 5800 5800 5800 5800 5800 5799 5798 5797 5795 5794 5792 5789 5787 5784 5782 5779
5788 5786 5785 5783 5781 5782 5784 5782 5781 5781 5781 5779 5778 5778 5779 5779 5780 5780 5781 5782 5783 5784 5786 5787 5789 5790 5791 5793 5793 5794 5794 5794 5794 5794 5793 5792 5791 5789 5787 5785 5783 5781 5778 5775
5779 5777 5777 5775 5774 5775 5774 5773 5773 5773 5772 5772 5771 5771 5772 5772 5772 5773 5774 5775 5776 5777 5778 5780 5782 5783 5784 5786 5787 5787 5788 5788 5788 5788 5787 5786 5785 5784 5783 5781 5779 5776 5774 5772
5769 5768 5766 5766 5767 5765 5763 5763 5762 5762 5762 5762 5763 5763 5764 5764 5765 5766 5767 5767 5768 5769 5771 5772 5774 5775 5777 5778 5779 5780 5781 5781 5781 5781 5781 5780 5780 5778 5777 5776 5774 5772 5769 5767
5757 5756 5754 5753 5754 5754 5752 5751 5751 5751 5752 5752 5753 5754 5755 5755 5756 5757 5758 5759 5760 5761 5762 5764 5765 5767 5769 5770 5771 5772 5773 5774 5774 5774 5774 5774 5773 5772 5771 5770 5768 5766 5764 5762
5745 5743 5741 5740 5741 5740 5739 5738 5738 5739 5740 5741 5742 5743 5744 5745 5746 5747 5748 5750 5751 5752 5754 5755 5757 5758 5760 5761 5762 5764 5765 5765 5766 5766 5766 5766 5766 5765 5764 5763 5762 5760 5758 5756
5730 5727 5725 5725 5726 5724 5725 5725 5724 5725 5726 5727 5729 5730 5732 5733 5735 5736 5738 5739 5741 5742 5744 5746 5747 5749 5750 5752 5753 5754 5756 5756 5757 5758 5758 5758 5758 5758 5757 5756 5755 5753 5751 5749